Home > Weather > Périgueux > Past weeks

Flag for France Weather for the Past 2 Weeks in Périgueux, France

Now
43 °F

Overcast.


Feels Like: 40 °F
Forecast: 36 / 45 °F
Wind: 5 mph from Southwest

Location: Bergerac Airport

Current Time: Feb 10, 2016 at 9:43:41 PM

Latest Report: Feb 10, 2016 at 9:00 PM


Visibility: N/A

Pressure: 29.83 "Hg

Humidity: 93%

Dew point: 41 °F

Location of PérigueuxLocation

Historic Weather in Périgueux — Graph

°F

Périgueux Temperature Yesterday

Maximum temperature yesterday: 54 °F (at 3:00 AM)
Minimum temperature yesterday: 43 °F (at 10:30 PM)
Average temperature yesterday: 50 °F

High & Low Weather Summary for the Past Weeks

 TemperatureHumidityPressure
High63 °F (Feb 6, 3:00 PM)100% (Jan 26, 11:00 PM)30.69 "Hg (Jan 26, 11:00 PM)
Low28 °F (Feb 4, 2:30 AM)44% (Feb 3, 4:00 PM)29.59 "Hg (Feb 9, 12:30 PM)
Average49 °F86%30.23 "Hg
* Reported Jan 26 8:00 PM — Feb 10 8:30 PM, Périgueux, Weather by CustomWeather, © 2016

Note: Actual official high and low records may vary slightly from our data, if they occured in-between our weather recording intervals... More about our weather records

Advertising

Périgueux Weather History for the Previous 24 Hours

 ConditionsComfort  
Time TempWeatherWind HumidityBarometerVisibility
8:30 PM
Wed, Feb 10
43 °FClear.6 mph93%29.83 "Hg10 mi
8:00 PM41 °FClear.6 mph93%29.83 "Hg10 mi
7:30 PM43 °FPassing clouds.5 mph87%29.83 "HgN/A
7:00 PM43 °FMostly cloudy.6 mph87%29.83 "HgN/A
6:30 PM43 °FPartly cloudy.7 mph87%29.80 "HgN/A
6:00 PM43 °FPassing clouds.6 mph87%29.80 "HgN/A
5:30 PM45 °FLight rain. Clear.6 mph81%29.80 "HgN/A
5:00 PM45 °FMostly cloudy.8 mph81%29.80 "HgN/A
4:30 PM45 °FOvercast.9 mph81%29.77 "HgN/A
4:00 PM45 °FSunny.9 mph81%29.77 "Hg10 mi
3:30 PM45 °FSunny.7 mph81%29.77 "Hg10 mi
3:00 PM45 °FOvercast.9 mph81%29.77 "HgN/A
2:30 PM45 °FLight rain. Broken clouds.10 mph87%29.77 "HgN/A
2:00 PM46 °FLight rain. More clouds than sun.8 mph82%29.77 "HgN/A
1:30 PM45 °FLight rain. Partly sunny.5 mph93%29.77 "HgN/A
1:00 PM45 °FLight rain. Mostly cloudy.5 mph93%29.77 "HgN/A
12:30 PM45 °FLight rain. Mostly cloudy.7 mph87%29.80 "HgN/A
12:00 PM45 °FLight rain. Overcast.10 mph87%29.80 "HgN/A
11:30 AM45 °FLight rain. Broken clouds.8 mph87%29.80 "HgN/A
11:00 AM43 °FPartly sunny.3 mph93%29.80 "HgN/A
10:30 AM43 °FMore clouds than sun.5 mph87%29.80 "HgN/A
10:00 AM43 °FMostly cloudy.3 mph87%29.80 "HgN/A
9:30 AM41 °FMostly cloudy.2 mph93%29.83 "HgN/A
9:00 AM41 °FLight rain. Broken clouds.2 mph93%29.83 "Hg6 mi
8:30 AM41 °FPartly sunny.7 mph87%29.83 "HgN/A
8:00 AM39 °FMostly cloudy.6 mph93%29.83 "HgN/A
7:30 AM41 °FOvercast.3 mph93%29.83 "HgN/A
7:00 AM41 °FPartly cloudy.No wind87%29.83 "HgN/A
6:30 AM41 °FMostly cloudy.3 mph87%29.83 "HgN/A
6:00 AM41 °FPassing clouds.7 mph87%29.83 "HgN/A
5:30 AM41 °FMostly cloudy.8 mph87%29.80 "HgN/A
5:00 AM41 °FPassing clouds.8 mph87%29.80 "HgN/A
4:30 AM41 °FPassing clouds.7 mph87%29.83 "HgN/A
4:00 AM41 °FMostly cloudy.6 mph87%29.83 "HgN/A
3:30 AM41 °FPartly cloudy.8 mph87%29.83 "HgN/A
3:00 AM43 °FPartly cloudy.15 mph81%29.83 "HgN/A
2:30 AM43 °FPassing clouds.14 mph81%29.80 "HgN/A
1:30 AM43 °FPartly cloudy.9 mph81%29.80 "HgN/A
1:00 AM43 °FPartly cloudy.7 mph81%29.80 "HgN/A
12:30 AM43 °FPassing clouds.7 mph81%29.80 "HgN/A
12:00 AM43 °FPartly cloudy.10 mph81%29.77 "HgN/A
11:30 PM
Tue, Feb 9
43 °FClear.13 mph81%29.77 "Hg10 mi
11:00 PM43 °FMostly cloudy.12 mph81%29.77 "HgN/A
10:30 PM43 °FLight rain. Mostly cloudy.20 mph81%29.80 "HgN/A
10:00 PM45 °FLight rain. Partly cloudy.20 mph76%29.77 "HgN/A
9:30 PM45 °FClear.13 mph76%29.74 "Hg10 mi
9:00 PM45 °FPassing clouds.16 mph76%29.74 "HgN/A
Weather by CustomWeather, © 2016

See weather overviewHow to use our weather pages